When you browse on this site, cookies collect data to enhance your experience and personalize the content and advertising you see.
Visit our Privacy Policy to learn more. By continuing to use the site, you agree to this use of cookies and data.
  • In Norway
  • List of Countries
  • For 7 days
  • Water Temperature
  • Satellite Maps
  • Weather Map
  • Weather Widgets
  • user-avatar
    Login

    Hourly Weather Yulara

    Today, 20 June, Thursday

    Time Temperature Precipitation Wind Pressure Humidity
    00:00 +8°C° 0 mm 4 mps 722 mmHg 54%
    01:00 +7°C° 0 mm 4 mps 722 mmHg 58%
    02:00 +7°C° 0 mm 4 mps 722 mmHg 61%
    03:00 +7°C° 0 mm 3 mps 722 mmHg 64%
    04:00 +5°C° 0 mm 3 mps 723 mmHg 67%
    05:00 +5°C° 0 mm 3 mps 723 mmHg 69%
    06:00 +4°C° 0 mm 3 mps 723 mmHg 72%
    07:00 +7°C° 0 mm 3 mps 723 mmHg 64%
    08:00 +7°C° 0 mm 4 mps 724 mmHg 57%
    09:00 +10°C° 0 mm 4 mps 724 mmHg 48%
    10:00 +12°C° 0 mm 4 mps 724 mmHg 42%
    11:00 +13°C° 0 mm 4 mps 724 mmHg 37%
    12:00 +15°C° 0 mm 4 mps 723 mmHg 31%
    13:00 +17°C° 0 mm 4 mps 723 mmHg 28%
    14:00 +17°C° 0 mm 4 mps 722 mmHg 25%
    15:00 +18°C° 0 mm 4 mps 722 mmHg 21%
    16:00 +16°C° 0 mm 3 mps 722 mmHg 24%
    17:00 +13°C° 0 mm 3 mps 722 mmHg 27%
    18:00 +11°C° 0 mm 3 mps 721 mmHg 31%
    19:00 +10°C° 0 mm 3 mps 722 mmHg 33%
    20:00 +9°C° 0 mm 3 mps 723 mmHg 35%
    21:00 +8°C° 0 mm 3 mps 723 mmHg 37%
    22:00 +8°C° 0 mm 3 mps 723 mmHg 37%
    23:00 +8°C° 0 mm 3 mps 723 mmHg 38%

    Tomorrow, 21 June, Friday

    Time Temperature Precipitation Wind Pressure Humidity
    00:00 +7°C° 0 mm 4 mps 723 mmHg 38%
    01:00 +6°C° 0 mm 4 mps 723 mmHg 40%
    02:00 +5°C° 0 mm 4 mps 723 mmHg 42%
    03:00 +4°C° 0 mm 3 mps 723 mmHg 44%
    04:00 +4°C° 0 mm 3 mps 723 mmHg 47%
    05:00 +3°C° 0 mm 3 mps 723 mmHg 49%
    06:00 +2°C° 0 mm 3 mps 723 mmHg 51%
    07:00 +4°C° 0 mm 3 mps 724 mmHg 47%
    08:00 +6°C° 0 mm 4 mps 724 mmHg 42%
    09:00 +8°C° 0 mm 4 mps 725 mmHg 37%
    10:00 +10°C° 0 mm 4 mps 724 mmHg 33%
    11:00 +12°C° 0 mm 5 mps 724 mmHg 28%
    12:00 +14°C° 0 mm 5 mps 723 mmHg 24%
    13:00 +15°C° 0 mm 5 mps 723 mmHg 22%
    14:00 +16°C° 0 mm 5 mps 722 mmHg 21%
    15:00 +18°C° 0 mm 4 mps 722 mmHg 19%
    16:00 +15°C° 0 mm 4 mps 722 mmHg 22%
    17:00 +13°C° 0 mm 4 mps 722 mmHg 25%
    18:00 +11°C° 0 mm 3 mps 722 mmHg 29%
    19:00 +10°C° 0 mm 4 mps 723 mmHg 30%
    20:00 +10°C° 0 mm 4 mps 723 mmHg 31%
    21:00 +8°C° 0 mm 4 mps 724 mmHg 32%
    22:00 +7°C° 0 mm 4 mps 723 mmHg 35%
    23:00 +6°C° 0 mm 4 mps 723 mmHg 37%

    Day after tomorrow, 22 June, Saturday

    Time Temperature Precipitation Wind Pressure Humidity
    00:00 +5°C° 0 mm 4 mps 723 mmHg 40%
    01:00 +5°C° 0 mm 4 mps 723 mmHg 42%
    02:00 +4°C° 0 mm 4 mps 723 mmHg 44%
    03:00 +4°C° 0 mm 4 mps 723 mmHg 46%
    04:00 +3°C° 0 mm 4 mps 723 mmHg 48%
    05:00 +3°C° 0 mm 3 mps 723 mmHg 50%
    06:00 +2°C° 0 mm 3 mps 723 mmHg 52%
    07:00 +4°C° 0 mm 4 mps 723 mmHg 47%
    08:00 +5°C° 0 mm 5 mps 724 mmHg 42%
    09:00 +7°C° 0 mm 6 mps 724 mmHg 37%
    10:00 +9°C° 0 mm 5 mps 724 mmHg 32%
    11:00 +12°C° 0 mm 5 mps 723 mmHg 27%
    12:00 +14°C° 0 mm 5 mps 723 mmHg 22%
    13:00 +15°C° 0 mm 5 mps 722 mmHg 21%
    14:00 +16°C° 0 mm 5 mps 722 mmHg 19%
    15:00 +17°C° 0 mm 5 mps 721 mmHg 17%
    16:00 +15°C° 0 mm 4 mps 721 mmHg 20%
    17:00 +13°C° 0 mm 4 mps 721 mmHg 23%
    18:00 +11°C° 0 mm 4 mps 721 mmHg 26%
    19:00 +10°C° 0 mm 4 mps 722 mmHg 28%
    20:00 +8°C° 0 mm 4 mps 722 mmHg 30%
    21:00 +8°C° 0 mm 4 mps 723 mmHg 31%
    22:00 +7°C° 0 mm 4 mps 723 mmHg 33%
    23:00 +6°C° 0 mm 4 mps 723 mmHg 36%

    23 June, Sunday

    Time Temperature Precipitation Wind Pressure Humidity
    00:00 +6°C° 0 mm 4 mps 723 mmHg 38%
    01:00 +5°C° 0 mm 4 mps 723 mmHg 40%
    02:00 +5°C° 0 mm 4 mps 723 mmHg 42%
    03:00 +4°C° 0 mm 4 mps 722 mmHg 44%
    04:00 +4°C° 0 mm 4 mps 723 mmHg 46%
    05:00 +3°C° 0 mm 4 mps 723 mmHg 48%
    06:00 +3°C° 0 mm 3 mps 723 mmHg 49%
    07:00 +4°C° 0 mm 4 mps 723 mmHg 46%
    08:00 +6°C° 0 mm 5 mps 724 mmHg 42%
    09:00 +7°C° 0 mm 5 mps 724 mmHg 39%
    10:00 +9°C° 0 mm 6 mps 724 mmHg 34%
    11:00 +13°C° 0 mm 6 mps 723 mmHg 29%
    12:00 +15°C° 0 mm 6 mps 723 mmHg 24%
    13:00 +15°C° 0 mm 6 mps 723 mmHg 23%
    14:00 +16°C° 0 mm 5 mps 722 mmHg 21%
    15:00 +17°C° 0 mm 5 mps 721 mmHg 20%
    16:00 +16°C° 0 mm 5 mps 722 mmHg 23%
    17:00 +14°C° 0 mm 4 mps 722 mmHg 26%
    18:00 +12°C° 0 mm 4 mps 722 mmHg 29%
    19:00 +11°C° 0 mm 4 mps 722 mmHg 31%
    20:00 +10°C° 0 mm 4 mps 723 mmHg 33%
    21:00 +10°C° 0 mm 4 mps 723 mmHg 35%
    22:00 +8°C° 0 mm 4 mps 723 mmHg 37%
    23:00 +7°C° 0 mm 4 mps 723 mmHg 39%

    24 June, Monday

    Time Temperature Precipitation Wind Pressure Humidity
    00:00 +7°C° 0 mm 4 mps 723 mmHg 40%
    01:00 +6°C° 0 mm 4 mps 723 mmHg 42%
    02:00 +6°C° 0 mm 4 mps 723 mmHg 44%
    03:00 +5°C° 0 mm 4 mps 723 mmHg 46%
    04:00 +5°C° 0 mm 4 mps 723 mmHg 47%
    05:00 +4°C° 0 mm 4 mps 724 mmHg 49%
    06:00 +4°C° 0 mm 4 mps 724 mmHg 50%
    07:00 +5°C° 0 mm 4 mps 725 mmHg 47%
    08:00 +6°C° 0 mm 4 mps 725 mmHg 43%
    09:00 +8°C° 0 mm 5 mps 725 mmHg 40%
    10:00 +10°C° 0 mm 5 mps 725 mmHg 35%
    11:00 +13°C° 0 mm 5 mps 725 mmHg 31%
    12:00 +15°C° 0 mm 5 mps 724 mmHg 26%
    13:00 +15°C° 0 mm 5 mps 724 mmHg 24%
    14:00 +17°C° 0 mm 4 mps 723 mmHg 23%
    15:00 +18°C° 0 mm 4 mps 723 mmHg 21%
    16:00 +17°C° 0 mm 4 mps 723 mmHg 23%
    17:00 +14°C° 0 mm 4 mps 723 mmHg 24%
    18:00 +13°C° 0 mm 3 mps 723 mmHg 26%
    19:00 +12°C° 0 mm 3 mps 724 mmHg 27%
    20:00 +12°C° 0 mm 4 mps 724 mmHg 28%
    21:00 +11°C° 0 mm 4 mps 725 mmHg 29%
    22:00 +10°C° 0 mm 4 mps 725 mmHg 30%
    23:00 +8°C° 0 mm 4 mps 725 mmHg 32%

    25 June, Tuesday

    Time Temperature Precipitation Wind Pressure Humidity
    00:00 +7°C° 0 mm 4 mps 725 mmHg 34%
    01:00 +7°C° 0 mm 4 mps 725 mmHg 36%
    02:00 +6°C° 0 mm 4 mps 725 mmHg 37%
    03:00 +5°C° 0 mm 3 mps 725 mmHg 39%
    04:00 +5°C° 0 mm 3 mps 725 mmHg 40%
    05:00 +5°C° 0 mm 3 mps 725 mmHg 41%
    06:00 +4°C° 0 mm 3 mps 725 mmHg 42%
    07:00 +6°C° 0 mm 4 mps 726 mmHg 39%
    08:00 +7°C° 0 mm 4 mps 726 mmHg 37%
    09:00 +8°C° 0 mm 4 mps 727 mmHg 34%
    10:00 +12°C° 0 mm 5 mps 726 mmHg 30%
    11:00 +14°C° 0 mm 5 mps 726 mmHg 25%
    12:00 +16°C° 0 mm 6 mps 725 mmHg 21%
    13:00 +16°C° 0 mm 6 mps 725 mmHg 21%
    14:00 +17°C° 0 mm 5 mps 725 mmHg 21%
    15:00 +19°C° 0 mm 5 mps 724 mmHg 22%
    16:00 +16°C° 0 mm 5 mps 724 mmHg 25%
    17:00 +15°C° 0 mm 4 mps 724 mmHg 29%
    18:00 +13°C° 0 mm 4 mps 725 mmHg 32%
    19:00 +12°C° 0 mm 4 mps 725 mmHg 34%
    20:00 +11°C° 0 mm 4 mps 725 mmHg 35%
    21:00 +10°C° 0 mm 4 mps 725 mmHg 37%
    22:00 +8°C° 0 mm 4 mps 725 mmHg 38%
    23:00 +7°C° 0 mm 4 mps 725 mmHg 39%
    Show more